Find Qianfan Xingzuo 03-05

NORAD ID: 62242 Int'l Des: 2024-232 Owner: YUANX Country: CN Constellation: spacesail operational
LEOCIRCULARPOLAR

当前视图

正在加载3D地球...

关于 Qianfan Xingzuo 03-05

正在加载描述...

即将过境

Passes for default location (London). Set your location on the main map for personalized predictions.

高度历史

Loading altitude history...

两行轨道根数

1 62242U 24232F 26159.14381238 .00000071 00000-0 91280-4 0 9994
2 62242 89.0085 23.3692 0015484 44.1198 316.1185 13.51008542123204
Epoch: Jun 8, 2026 • Age: 5 hours

当前状态

高度 1062.0 km
速度 7.33 km/s
星下点 4.58°N, 5.43°W
发射日期 Dec 5, 2024
运行时间 1.5 years
类型 internet

技术详情

分类 Payload
质量 267.00 kg
干质量 267.00 kg
总质量 267.00 kg
长度 0.30 m
直径 3.00 m
跨度 10.00 m
形状 Box+pan
制造商 SECM
平台类型 Qianfan
阶段状态 In Orbit
所有者/国家 YUANX/CN

Most Searched